Regional Weather Roundup
Issued by NWS

Home | Current Version | Previous Version | Graphics & Text | Print | Product List | Glossary On
Versions: 1 2 3 4 5 6 7 8 9 10 11 12 13 14 15 16 17 18 19 20 21 22 23 24 25 26 27 28 29 30 31 32 33 34 35 36 37 38 39 40 41 42 43 44 45 46 47 48 49 50
000
ASUS45 KTFX 061504
RWRMT
MONTANA HOURLY WEATHER ROUNDUP
NATIONAL WEATHER SERVICE GREAT FALLS MT
804 AM MST FRI MAR 6 2015

NOTE: "FAIR" INDICATES FEW OR NO CLOUDS BELOW 12000 FEET WITH NO
SIGNIFICANT WEATHER AND/OR OBSTRUCTIONS TO VISIBILITY.

* THESE STATIONS ARE NOT UNDER NWS QUALITY CONTROL. THEY DO NOT
   REPORT WEATHER SUCH AS PRECIPITATION OR FOG.

MTZ001>007-043-061600-
WEST OF THE DIVIDE
CITY           SKY/WX    TMP DP  RH WIND       PRES   REMARKS
KALISPELL      PTSUNNY   19  18  96 CALM      30.33R
MISSOULA       SUNNY     25  18  75 CALM      30.38R
BUTTE          PTSUNNY   25  16  69 NW6       30.31R WCI  18
MULLAN PASS    SUNNY     30  16  56 SW7       30.30S WCI  23
* ANACONDA     PTCLDY    34  12  40 N/A        N/A
* ESSEX        N/A       18  15  88 S1         N/A
* EUREKA APT   CLOUDY    23  18  81 N3        30.30R
* HAMILTON APT PTCLDY    34  18  52 S14       30.35R WCI  24
* LINCOLN      N/A       23  14  68 NW2        N/A
* LOOKOUT PASS N/A       29  19  66 NE2        N/A
* POLSON       N/A       30  18  61 S2         N/A
* RONAN APT    PTCLDY    27  21  78 N/A        N/A
* SEELEY LAKE  N/A       13  10  88 N2         N/A
* THOMP F APT  SUNNY     23  11  60 N3         N/A
$$

MTZ008-052>055-061600-
SOUTHWEST MONTANA
CITY           SKY/WX    TMP DP  RH WIND       PRES   REMARKS
BOZEMAN        PTCLDY    28  21  75 S3        30.30R
DILLON         CLOUDY    36  12  37 S13       30.32R WCI  27
* W YELLOWSTON PTCLDY     3  -2  79 S1         N/A
* THREE FORKS  PTCLDY    25  16  69 N/A        N/A
* BOULDER HILL N/A       32   9  38 SW7        N/A   WCI  25
* MONIDA PASS  N/A       23  12  63 SE8        N/A   WCI  14
* RAYNOLDS PAS N/A       13   2  61 SW9        N/A   WCI   1
* WHITEHALL    N/A       37  11  34 SW7G16     N/A   WCI  32
* WISE RIVER   N/A       33  10  38 W12G21     N/A   WCI  24
$$

MTZ009>010-012-014-046-048-049-054-061600-
EAST SLOPES AND CENTRAL MONTANA
CITY           SKY/WX    TMP DP  RH WIND       PRES   REMARKS
CUT BANK       CLOUDY    41  21  45 W25       30.07S
GREAT FALLS    CLOUDY    41  19  41 SW12      30.13S
HELENA         CLOUDY    45  16  31 W15G22    30.25R
* DEARBORN     N/A       41  18  39 S10        N/A
* EAST GLACIER N/A       39  20  46 SW9G17     N/A   WCI  33
* MONARCH      N/A       36  12  37 SW21G26    N/A   WCI  25
* PENDROY      N/A       37  20  50 W9         N/A   WCI  30
* ROGERS PASS  N/A       33  13  44 SE21G34    N/A   WCI  21
* SWEET GRASS  N/A       41  21  45 W19G27     N/A
$$

MTZ011-013-016-021-035-040-045-047-050-051-061600-
NORTH CENTRAL MONTANA
CITY           SKY/WX    TMP DP  RH WIND       PRES   REMARKS
HAVRE          PTCLDY    37  21  52 SW21      30.07S WCI  26
LEWISTOWN      PTCLDY    37  19  48 VRB7      30.12F WCI  32
* N BAR RANCH  SUNNY     41  18  39 NW18G26   30.11S
* FORT BENTON  PTSUNNY   45  18  34 SW16G21   30.12S
* DENTON       N/A       41  19  41 W18        N/A
* GEYSER       N/A       40  17  39 W12G18     N/A   WCI  33
* JUDITH GAP   N/A       38  17  42 W9         N/A   WCI  32
* LOMA         N/A       39  20  46 W8         N/A   WCI  33
$$

MTZ017>020-022>027-061-062-061600-
NORTHEAST MONTANA
CITY           SKY/WX    TMP DP  RH WIND       PRES   REMARKS
GLASGOW        PTCLDY    28  21  75 SE3       30.02F
GLENDIVE       CLOUDY    28  19  69 S5        30.07S WCI  22
JORDAN         SUNNY     36  21  54 W5        30.07R WCI  32
SIDNEY         PTCLDY    27  19  72 S5        30.08F WCI  21
WOLF POINT     CLOUDY    28  21  75 W5        30.04F WCI  22
* BEAVER HILL  N/A       29  18  63 SW11       N/A   WCI  19
* CIRCLE       N/A       30  23  75 N/A        N/A
* LINDSAY DVD  N/A       37  20  50 W6         N/A   WCI  32
* NAVAJO       N/A       30  21  69 SW11       N/A   WCI  21
* PLENTYWOOD A PTCLDY    23  19  85 SE8       30.00F WCI  14
* POPLAR APT   PTCLDY    28  21  75 CALM      30.05S
* SACO         N/A       33  20  59 S8         N/A   WCI  26
$$

MTZ028>042-056>058-061600-
SOUTHCENTRAL AND SOUTHEAST MONTANA
CITY           SKY/WX    TMP DP  RH WIND       PRES   REMARKS
BAKER          CLOUDY    34  19  54 W8        30.08R WCI  27
BILLINGS       PTCLDY    36  16  44 SW14      30.17R WCI  27
LIVINGSTON     PTCLDY    39  12  33 W20G29    30.23R WCI  29
MILES CITY     PTCLDY    37  19  48 N/A       30.10R
* BIG TIMBER A PTCLDY    43  12  28 SW26G31   30.19R
* FORSYTH APT  PTCLDY    36  18  48 SW5       30.13R WCI  32
* LAUREL APT   PTCLDY    32  14  47 SW8        N/A   WCI  25
* ROUNDUP APT  SUNNY     39  10  30 SW14       N/A   WCI  31
* ALZADA       N/A       34  21  59 SW10       N/A   WCI  26
* HYSHAM       N/A       35  13  40 W8         N/A   WCI  28
* REED POINT   N/A       49  19  30 W14G22     N/A
* ROSCOE HILL  N/A       42   7  23 W2         N/A
$$

REGIONAL REPORTS...DAKOTAS
CITY           SKY/WX    TMP DP  RH WIND       PRES   REMARKS
WILLISTON      CLOUDY    21  18  88 S3        30.06S
DICKINSON      CLOUDY    28  19  69 SW3       30.05R
BEACH          CLOUDY    30  19  64 SW12      30.06S WCI  20
CROSBY         SUNNY     23  18  81 SW14      30.03S WCI  10
WATFORD CITY   PTCLDY    18  16  92 CALM      30.05S
BISMARCK       PTCLDY    21  16  81 CALM      30.13R
GRAND FORKS    SUNNY     19  10  68 W10       30.06R WCI   8
FARGO          SUNNY     19  10  68 W10       30.09R WCI   8
BUFFALO SD     CLOUDY    34  21  59 W7        30.02R WCI  28
RAPID CITY     PTCLDY    36  23  59 NW5       30.13R WCI  32
$$

REGIONAL REPORTS...WYOMING/IDAHO/WASHINGTON
CITY           SKY/WX    TMP DP  RH WIND       PRES   REMARKS
GILLETTE       SUNNY     37  18  46 SW10      30.17R WCI  30
SHERIDAN       PTCLDY    30  18  61 CALM      30.17R
CODY           SUNNY     43  10  26 W14G24    30.20R
YELLOWSTONE LA PTCLDY     3   0  87 CALM      30.39R
SALMON         SUNNY     19  16  88 CALM      30.46R
MULLAN PASS    SUNNY     30  16  56 SW7       30.30S WCI  23
SAND POINT     PTCLDY    23  23 100 CALM      30.38R
SPOKANE        PTSUNNY   34  23  64 SE9       30.34F WCI  27

$$




USA.gov is the U.S. government's official web portal to all federal, state and local government web resources and services.